This is the latest recevied weather packets stored in our database for station/object N1OF. If no packets are shown the sender has not sent any weather packets the latest 1 day(s).
| Time | Temp. | Humidity | Pressure | Rain* | Wind** | Luminosity | Snow |
|---|---|---|---|---|---|---|---|
| 1778034269 | 8.33° C | 97% | 1010.1 hPa | 4.32 mm | - | - | - |
| 1778033967 | 8.89° C | 97% | 1010.1 hPa | 4.83 mm | - | - | - |
| 1778033664 | 8.89° C | 97% | 1010.3 hPa | 4.83 mm | - | - | - |
| 1778033361 | 8.89° C | 97% | 1010 hPa | 4.32 mm | - | - | - |
| 1778033059 | 8.89° C | 97% | 1010 hPa | 3.05 mm | - | - | - |
| 1778032756 | 8.89° C | 97% | 1010.1 hPa | 3.05 mm | - | - | - |
| 1778032454 | 8.33° C | 97% | 1010.1 hPa | 3.05 mm | - | - | - |
| 1778032150 | 8.89° C | 97% | 1009.9 hPa | 3.05 mm | - | - | - |
| 1778031847 | 8.89° C | 97% | 1010 hPa | 4.83 mm | - | - | - |
| 1778031544 | 8.89° C | 97% | 1010.1 hPa | 3.05 mm | - | - | - |
| 1778031243 | 8.89° C | 97% | 1009.8 hPa | 1.27 mm | - | - | - |
| 1778030937 | 8.89° C | 97% | 1009.8 hPa | 1.78 mm | - | - | - |
| 1778030634 | 8.89° C | 97% | 1009.5 hPa | 3.05 mm | - | - | - |
| 1778030331 | 8.89° C | 97% | 1009.5 hPa | 3.05 mm | - | - | - |
| 1778029725 | 8.89° C | 97% | 1009.4 hPa | 1.27 mm | - | - | - |
| 1778029424 | 8.89° C | 96% | 1009.6 hPa | 1.78 mm | - | - | - |
| 1778028817 | 8.89° C | 97% | 1009.4 hPa | 1.27 mm | - | - | - |
| 1778028513 | 8.89° C | 97% | 1009.4 hPa | 1.78 mm | - | - | - |
| 1778028211 | 8.89° C | 97% | 1009.5 hPa | 3.05 mm | - | - | - |
| 1778027907 | 8.89° C | 97% | 1009.4 hPa | 1.27 mm | - | - | - |
| 1778027300 | 8.89° C | 96% | 1009.1 hPa | 3.56 mm | - | - | - |
| 1778026692 | 8.89° C | 96% | 1009.3 hPa | 1.27 mm | - | - | - |
| 1778024875 | 9.44° C | 96% | 1009.3 hPa | 1.27 mm | - | - | - |
| 1778024269 | 9.44° C | 96% | 1009.2 hPa | 1.78 mm | - | - | - |
| 1778022455 | 9.44° C | 96% | 1009.4 hPa | 1.27 mm | - | - | - |
* Rain latest hour (hover to see other rain measurements)
** Current wind speed in m/s (hover to see current wind gust speed)